Weather Roundup
Issued by NWS Chicago, IL

Home | Current Version | Previous Version | Graphics & Text | Print | Product List | Glossary On
Versions: 1 2 3 4 5 6 7 8 9 10 11 12 13 14 15 16 17 18 19 20 21 22 23 24 25 26 27 28 29 30 31 32 33 34 35 36 37 38 39 40 41 42 43 44 45 46 47 48 49 50
000
NZUS59 KLOT 161108
HRRLOT

CHICAGO AREA WEATHER ROUNDUP
NATIONAL WEATHER SERVICE CHICAGO/ROMEOVILLE IL
500 AM CST SAT DEC 16 2017

NOTE: "FAIR" INDICATES FEW OR NO CLOUDS BELOW 12,000 FEET WITH NO
SIGNIFICANT WEATHER AND/OR OBSTRUCTIONS TO VISIBILITY.

* THESE STATIONS ARE NOT UNDER NWS QUALITY CONTROL. THEY ALSO MAY NOT
  REPORT WEATHER SUCH AS PRECIPITATION OR FOG.

ILZ005-006-012>014-019>023-161200-
NORTHEAST ILLINOIS

CITY           SKY/WX    TMP DP  RH WIND       PRES   REMARKS
OHARE          CLOUDY    37  24  59 SW13      29.82S
MIDWAY         CLOUDY    38  25  59 SW13G21   29.84S
AURORA         CLOUDY    36  25  64 S9        29.83S
LANSING*       CLOUDY    35  26  69 SW13      29.86F WCI  27
JOLIET*        PTCLDY    37  26  63 SW7       29.85S
WAUKEGAN       CLOUDY    36  25  64 SW7       29.81R
DUPAGE AIRPORT CLOUDY    35  25  66 SW12      29.82S WCI  27
WHEELING       CLOUDY    38  25  59 SW9       29.83S
KANKAKEE*      CLOUDY    34  24  65 SW16G22   29.89S WCI  24
MORRIS*        PTCLDY    35  24  66 SW13G18   29.84F WCI  26
LEWIS AIRPORT* CLOUDY    35  25  66 SW10      29.84S WCI  28
NORTHERLY ISL    N/A     37  23  57 SW12        N/A
$$

WIZ051-052-058>065-066-070>072-161200-
SOUTHEAST WISCONSIN

CITY           SKY/WX    TMP DP  RH WIND       PRES   REMARKS
MILWAUKEE      CLOUDY    34  25  69 CALM      29.81R
KENOSHA*       CLOUDY    36  23  59 SW10      29.80S
RACINE*        CLOUDY    34  25  69 SW5       29.82R WCI  30
BURLINGTON     PTCLDY    34  26  72 S6        29.79R WCI  29
WAUKESHA       CLOUDY    28  27  93 CALM      29.81R
WEST BEND      CLOUDY    25  25 100 CALM      29.82R
$$

INZ001>003-010>013-019-020-161200-
NORTHWEST INDIANA

CITY           SKY/WX    TMP DP  RH WIND       PRES   REMARKS
GARY*          CLOUDY    37  23  56 SW12G23   29.87S
MICHIGAN CITY* NOT AVBL
RENSSELAER*    NOT AVBL
VALPARAISO     CLOUDY    36  25  64 SW13      29.87F
$$

LMZ740>746-161200-
SOUTHERN LAKE MICHIGAN

STATION/POSITION TIME  SKY/WX   TEMP WIND        PRES    VSBY
                                AIR  DIR/SP/G
                 (UTC)          (F)  (DEG/KT/KT) (MB)    (MI)
HARRISON CRIB    1040            38  210/ 20/ 23   N/A
BURNHAM HARBOR   1100            37  190/ 12/ 13   N/A
CALUMET HARBOR   1042            36  200/ 12/ 17 1009.9F
BURNS HARBOR     1040            38  210/ 16/ 28 1011.2F
MICHIGAN CITY    1040            36  190/ 15/ 18   N/A
$$

ABBREVIATIONS USED IN REMARKS
   TC - TEMPERATURE IN CELSIUS
  WCI - WIND CHILL INDEX
   HX - HEAT INDEX
  VSB - VISIBILITY
$$




USA.gov is the U.S. government's official web portal to all federal, state and local government web resources and services.